Weather Roundup
Issued by NWS Chicago, IL

Home | Current Version | Previous Version | Text Only | Print | Product List | Glossary Off
Versions: 1 2 3 4 5 6 7 8 9 10 11 12 13 14 15 16 17 18 19 20 21 22 23 24 25 26 27 28 29 30 31 32 33 34 35 36 37 38 39 40 41 42 43 44 45 46 47 48 49 50

972
NZUS59 KLOT 241108
HRRLOT

CHICAGO AREA WEATHER ROUNDUP
NATIONAL WEATHER SERVICE CHICAGO/ROMEOVILLE IL
600 AM CDT TUE MAY 24 2016

NOTE: "FAIR" INDICATES FEW OR NO CLOUDS BELOW 12,000 FEET WITH NO
SIGNIFICANT WEATHER AND/OR OBSTRUCTIONS TO VISIBILITY.

* THESE STATIONS ARE NOT UNDER NWS QUALITY CONTROL. THEY ALSO MAY NOT
  REPORT WEATHER SUCH AS PRECIPITATION OR FOG.

ILZ005-006-012>014-019>023-241200-
NORTHEAST ILLINOIS

CITY           SKY/WX    TMP DP  RH WIND       PRES   REMARKS
OHARE          CLOUDY    61  46  57 CALM      29.97R
MIDWAY         CLOUDY    65  44  46 S7        29.98R
AURORA         CLOUDY    55  47  74 CALM      29.98R
LANSING*       CLOUDY    59  45  60 CALM      30.00R
JOLIET*        CLEAR     55  49  82 CALM      29.99R
WAUKEGAN       CLOUDY    60  47  61 SW6       29.96S
DUPAGE AIRPORT CLOUDY    57  46  66 S3        29.97S
WHEELING       CLOUDY    59  47  64 S5        29.98S
KANKAKEE*      CLOUDY   N/A N/A N/A S6        30.01R
MORRIS*        CLEAR     59  48  66 CALM      29.98R
LEWIS AIRPORT* CLEAR     58  44  61 SE6       29.99R
$$

WIZ051-052-058>065-066-070>072-241200-
SOUTHEAST WISCONSIN

CITY           SKY/WX    TMP DP  RH WIND       PRES   REMARKS
MILWAUKEE      MOCLDY    61  46  57 SW8       29.95R
KENOSHA*       CLOUDY    59  47  64 SW6       29.96S
RACINE*        CLOUDY    62  46  55 SW8       29.97R
BURLINGTON     CLOUDY    51  46  84 CALM      29.96R
WAUKESHA       CLEAR     57  45  62 S6        29.96R
WEST BEND      CLOUDY    52  43  71 CALM      29.94S
$$

INZ001>003-010>013-019-020-241200-
NORTHWEST INDIANA

CITY           SKY/WX    TMP DP  RH WIND       PRES   REMARKS
GARY*          PTCLDY    64  50  59 S6        30.00R
MICHIGAN CITY* NOT AVBL
RENSSELAER*    NOT AVBL
VALPARAISO     CLEAR     57  41  55 CALM      30.02R
$$

LMZ740>746-241200-
SOUTHERN LAKE MICHIGAN

STATION/POSITION TIME  SKY/WX   TEMP WIND        PRES    VSBY
                                AIR  DIR/SP/G
                 (UTC)          (F)  (DEG/KT/KT) (MB)    (MI)
HARRISON CRIB    1000            68  210/ 17/ 19   N/A
BURNHAM HARBOR   1100            66  240/  5/  7   N/A
CALUMET HARBOR   1000            64  180/  5/  8 1014.6R
BURNS HARBOR     1001            63  190/ 11/ 16 1015.9R
MICHIGAN CITY    1000            65  160/ 14/ 16   N/A
$$

ABBREVIATIONS USED IN REMARKS
   TC - TEMPERATURE IN CELSIUS
  WCI - WIND CHILL INDEX
   HX - HEAT INDEX
  VSB - VISIBILITY
$$




USA.gov is the U.S. government's official web portal to all federal, state and local government web resources and services.